Regional Weather Roundup
Issued by NWS Midland/Odessa, TX

Skip options and go directly to product.
Home | Oldest Version | Next Version | Current Version | All | Text Only | Save Text | Print | Product List | Glossary On

Skip product version selection by date and time.   
325
ASUS44 KMAF 261902
RWRMAF
MIDLAND AREA WEATHER ROUNDUP
NATIONAL WEATHER SERVICE MIDLAND TX
100 PM CST WED NOV 26 2014

...IN SOUTHWEST TEXAS AND SOUTHEAST NEW MEXICO...

CITY           SKY/WX    TMP DP  RH WIND       PRES   REMARKS
ALPINE         SUNNY     66  17  15 S6        30.35F
ANDREWS        NOT AVBL
ARTESIA        NOT AVBL
BIG SPRING     SUNNY     59  29  32 NE8       30.29F
CARLSBAD         N/A     63  19  18 S3        30.23F
DRYDEN           N/A     70  10  10 SW15      30.22F
FORT STOCKTON  SUNNY     68  16  13 NW8       30.25F
GUAD PASS      NOT AVBL
HOBBS          SUNNY     55  25  30 N8        30.28F
MARFA          SUNNY     64  18  16 W20       30.32F
MIDLAND AIRPK  SUNNY     58  26  29 NE9       30.27F
MIDLAND INTL   SUNNY     59  24  26 NE12      30.25F
ODESSA         SUNNY     60  21  22 N12       30.26F
PECOS          SUNNY     68  20  16 NW6       30.25F
PRESIDIO       FAIR      61  15  16 SW7       30.32F
SEMINOLE       SUNNY     53  29  39 NE8       30.29F
SNYDER         SUNNY     54  32  43 N10       30.26F
WINK           SUNNY     69  18  14 N8        30.23F
$$
...OTHER STATIONS IN TEXAS...

CITY           SKY/WX    TMP DP  RH WIND       PRES   REMARKS
ABILENE        SUNNY     58  33  39 N9        30.24F
AMARILLO       MOSUNNY   49  23  36 NW12      30.27F
AUSTIN         SUNNY     73  35  25 SW10      30.15F
BROWNSVILLE    SUNNY     73  42  32 SW14      30.27F
CORPUS CHRISTI SUNNY     69  44  40 SW17      30.23F
DALLAS FTW     MOSUNNY   62  32  32 N9        30.16F
DEL RIO        SUNNY     68  30  24 W3        30.22F
EL PASO        SUNNY     59  12  15 VRB3      30.32F
HOUSTON INT    SUNNY     71  34  25 W10G21    30.19F
LUBBOCK        MOSUNNY   56  28  34 N8        30.26S
SAN ANGELO     SUNNY     66  22  18 N9        30.22F
SAN ANTONIO    SUNNY     68  34  28 S12G17    30.19F
WACO           SUNNY     66  27  23 NW14      30.16F
WICHITA FALLS  NOT AVBL
$$
...OTHER LOCATIONS IN NEW MEXICO...

CITY           SKY/WX    TMP DP  RH WIND       PRES   REMARKS
ALAMAGORDO     SUNNY     63  19  19 NW13G20   30.32F
ALBUQUERQUE    MOSUNNY   53  17  24 CALM      30.37F
CANNON AFB     SUNNY     48  27  43 VRB1      30.27F
CLOVIS         SUNNY     48  27  43 CALM      30.27F
HOLLOMAN AFB   SUNNY     61  20  20 N10       30.31F
ROSWELL        SUNNY     62  22  21 E5        30.24F
RUIDOSO        SUNNY     50  19  29 NW12G17   30.36F
SANTA FE       SUNNY     48  17  29 SW10      30.34F
TRUTH OR CONSE SUNNY     56  16  20 SE6       30.34F
TUCUMCARI      MOSUNNY   46  26  45 SE3       30.27F
$$

USA.gov is the U.S. government's official web portal to all federal, state and local government web resources and services.